Location: Bastrop State Park
(30.1090°N, 97.2819°W)
Time: 04:41:42
(UTC-06:00)

ISS - Visible Passes

Search period start: 16 January 2017 00:00
Search period end: 26 January 2017 00:00
Orbit: 400 x 410 km, 51.6° (Epoch: 17 January)

Date Brightness Start Highest point End Pass type
(mag) Time Alt. Az. Time Alt. Az. Time Alt. Az.
17 Jan -1.4 06:39:24 10° NNW 06:42:08 24° NE 06:44:51 10° E visible
18 Jan -0.7 05:48:48 12° NNE 05:49:47 13° NE 05:51:29 10° ENE visible
19 Jan -3.2 06:31:41 15° NW 06:34:19 72° NE 06:37:32 10° SE visible
20 Jan -1.9 05:41:57 31° NE 05:42:04 31° NE 05:45:00 10° ESE visible
21 Jan -2.4 06:25:00 23° W 06:26:15 32° SW 06:29:12 10° SSE visible
22 Jan -1.8 05:35:25 33° SE 05:35:25 33° SE 05:37:21 10° SE visible
23 Jan -0.9 06:18:37 11° SW 06:18:37 11° SW 06:18:58 10° SW visible
23 Jan -0.5 19:38:42 10° S 19:38:52 11° S 19:38:52 11° S visible
24 Jan 0.2 20:22:04 10° WSW 20:22:07 10° WSW 20:22:07 10° WSW visible
25 Jan -3.1 19:29:44 10° SW 19:32:37 60° S 19:32:37 60° S visible
